, AK

(GMT )
McGrath

Weather History for PAMC - March, 2013

Change the Weather History Date:

Friday, March 8, 2013

  Actual Average Record
Temperature  
Mean Temperature 36 °F -  
Max Temperature 47 °F 22 °F 47 °F (2013)
Min Temperature 24 °F -5 °F -45 °F (1971)
Degree Days  
Heating Degree Days 29 57  
Month to date heating degree days 394 462  
Since 1 July heating degree days 10926 10700  
Cooling Degree Days 0    
Month to date cooling degree days 0  
Year to date cooling degree days 0  
Moisture  
Dew Point 18 °F    
Average Humidity 46    
Maximum Humidity 66    
Minimum Humidity 18    
Precipitation  
Precipitation 0.00 in 0.03 in 0.36 in (1985)
Month to date precipitation 0.06 0.24  
Year to date precipitation 3.23 2.27  
Snow  
Snow 0.00 in 0.50 in 5.40 in (1985)
Month to date snowfall 1.2 3.6  
Since 1 July snowfall 67.1 83.6  
Snow Depth 38.00 in    
Sea Level Pressure  
Sea Level Pressure 29.38 in    
Wind  
Wind Speed 4 mph (SE)    
Max Wind Speed 20 mph    
Max Gust Speed 33 mph    
Visibility 10 miles    
Events      
T = Trace of Precipitation, MM = Missing Value Source: NWS Daily Summary

Daily Weather History Graph

Daily Weather History Graph

Search for Another Location

Airport or City:

Trip Planner

Search our weather history database for the weather conditions in past years. The results will help you decide how hot, cold, wet, or windy it might be!

Date:

Astronomy

Mar. 08, 2013 Rise Set
Actual Time 8:02 AM AKST 7:05 PM AKST
Civil Twilight 7:16 AM AKST 7:50 PM AKST
Nautical Twilight 6:23 AM AKST 8:44 PM AKST
Astronomical Twilight 5:27 AM AKST 9:41 PM AKST
Moon 6:44 AM AKST (3/8) 3:28 PM AKST (3/8)
Length of Visible Light 12h 34m
Length of Day
11h 03m
Waning Crescent, 11% of the Moon is Illuminated
Mar 8
Waning Crescent
Mar 11
New
Mar 19
First Quarter
Mar 27
Full
Apr 2
Last Quarter

Hourly Weather History & Observations

Time (AKST) Temp. Windchill Dew Point Humidity Pressure Visibility Wind Dir Wind Speed Gust Speed Precip Events Conditions
12:53 AM 37.0 °F 32.4 °F 19.9 °F 50% 29.25 in 10.0 mi Variable 5.8 mph 19.6 mph N/A   Clear
1:53 AM 39.0 °F 31.0 °F 19.9 °F 46% 29.24 in 10.0 mi ESE 13.8 mph 27.6 mph N/A   Clear
3:53 AM 39.9 °F 31.4 °F 19.9 °F 45% 29.25 in 10.0 mi ESE 16.1 mph 27.6 mph N/A   Clear
4:53 AM 39.0 °F 31.0 °F 19.9 °F 46% 29.25 in 10.0 mi ESE 13.8 mph 26.5 mph N/A   Clear
5:53 AM 39.0 °F 32.3 °F 19.0 °F 45% 29.26 in 10.0 mi ESE 10.4 mph 21.9 mph N/A   Clear
6:53 AM 34.0 °F - 18.0 °F 52% 29.29 in 10.0 mi Calm Calm - N/A   Partly Cloudy
7:53 AM 28.9 °F - 16.0 °F 58% 29.31 in 10.0 mi Calm Calm - N/A   Partly Cloudy
8:53 AM 25.0 °F 20.7 °F 15.1 °F 66% 29.33 in 10.0 mi WNW 3.5 mph - N/A   Scattered Clouds
9:53 AM 28.0 °F 24.2 °F 15.1 °F 58% 29.35 in 10.0 mi WSW 3.5 mph - N/A   Scattered Clouds
10:53 AM 33.1 °F - 17.1 °F 52% 29.37 in 10.0 mi Calm Calm - N/A   Scattered Clouds
11:53 AM 37.9 °F - 18.0 °F 45% 29.38 in 10.0 mi Calm Calm - N/A   Scattered Clouds
12:53 PM 44.1 °F - 18.0 °F 35% 29.39 in 10.0 mi Calm Calm - N/A   Scattered Clouds
1:53 PM 45.0 °F - 17.1 °F 33% 29.39 in 10.0 mi Calm Calm - N/A   Scattered Clouds
2:53 PM 46.0 °F - 16.0 °F 30% 29.39 in 10.0 mi Calm Calm - N/A   Scattered Clouds
3:53 PM 44.1 °F - 16.0 °F 32% 29.41 in 10.0 mi Calm Calm - N/A   Scattered Clouds
4:53 PM 41.0 °F - 18.0 °F 40% 29.42 in 10.0 mi Calm Calm - N/A   Partly Cloudy
5:53 PM 39.0 °F 35.7 °F 19.0 °F 45% 29.44 in 10.0 mi East 4.6 mph - N/A   Mostly Cloudy
7:53 PM 36.0 °F 31.1 °F 17.1 °F 46% 29.50 in 10.0 mi SSE 5.8 mph - N/A   Overcast
8:53 PM 34.0 °F - 17.1 °F 50% 29.52 in 10.0 mi Calm Calm - N/A   Overcast
9:53 PM 33.1 °F 30.0 °F 17.1 °F 52% 29.55 in 10.0 mi SE 3.5 mph - N/A   Overcast
10:53 PM 30.0 °F 26.5 °F 19.0 °F 64% 29.57 in 10.0 mi SE 3.5 mph - N/A   Overcast
11:53 PM 35.1 °F 30.1 °F 19.0 °F 52% 29.60 in 10.0 mi SE 5.8 mph - N/A   Overcast